KI6IKQ Weather Reports


time (UTC)temp
C
wind
direction
speed
KPH
gust
KPH
rain 1hr
cm
rain 24hr
cm
rain mn
cm
humidity
%
barometer
mb
20260510152703 17 307 6.4 17.7 0.00 0.00 0.00 73 1013.2
20260510151824 17 277 4.8 14.5 0.00 0.00 0.00 75 1013.3
20260510150924 16 284 4.8 14.5 0.00 0.00 0.00 76 1013.2
20260510150024 16 283 4.8 12.9 0.00 0.00 0.00 78 1013.2
20260510145424 16 276 3.2 11.3 0.00 0.00 0.00 79 1013.2
20260510144525 15 288 4.8 12.9 0.00 0.00 0.00 80 1013.0
20260510143603 15 294 3.2 12.9 0.00 0.00 0.00 82 1013.0
20260510142703 14 283 3.2 12.9 0.00 0.00 0.00 83 1013.0
20260510141803 14 283 3.2 11.3 0.00 0.00 0.00 84 1013.0
20260510140903 13 274 3.2 11.3 0.00 0.00 0.00 85 1012.7
20260510140004 13 283 3.2 9.7 0.00 0.00 0.00 85 1012.6
20260510135404 13 284 1.6 9.7 0.00 0.00 0.00 86 1012.6
20260510134503 13 275 1.6 6.4 0.00 0.00 0.00 86 1012.6
20260510133603 12 268 1.6 6.4 0.00 0.00 0.00 86 1012.4
20260510132703 12 276 1.6 6.4 0.00 0.00 0.00 86 1012.2
20260510131803 12 275 1.6 6.4 0.00 0.00 0.00 86 1012.2
20260510130904 12 277 1.6 4.8 0.00 0.00 0.00 86 1012.1
20260510130004 12 287 1.6 6.4 0.00 0.00 0.00 86 1012.1
20260510125404 12 287 1.6 4.8 0.00 0.00 0.00 85 1012.2
20260510124524 12 285 1.6 4.8 0.00 0.00 0.00 85 1012.2
20260510123624 12 276 1.6 6.4 0.00 0.00 0.00 85 1012.1
20260510122724 12 277 1.6 6.4 0.00 0.00 0.00 85 1012.0
20260510121824 13 282 1.6 8.0 0.00 0.00 0.00 85 1012.1
20260510120924 13 271 1.6 6.4 0.00 0.00 0.00 85 1012.2
20260510120003 13 281 1.6 6.4 0.00 0.00 0.00 85 1012.1
20260510115403 13 274 1.6 4.8 0.00 0.00 0.00 84 1012.1
20260510114503 13 276 1.6 6.4 0.00 0.00 0.00 84 1012.2
20260510113603 13 289 1.6 6.4 0.00 0.00 0.00 84 1012.2
20260510112703 13 298 1.6 6.4 0.00 0.00 0.00 84 1012.1
20260510111803 13 295 1.6 6.4 0.00 0.00 0.00 84 1012.1
20260510110903 13 280 1.6 8.0 0.00 0.00 0.00 84 1012.1
20260510110003 13 281 1.6 6.4 0.00 0.00 0.00 83 1011.9
20260510105403 13 303 1.6 6.4 0.00 0.00 0.00 83 1011.9
20260510104503 13 295 1.6 6.4 0.00 0.00 0.00 83 1011.7
20260510103603 13 294 1.6 6.4 0.00 0.00 0.00 83 1011.7
20260510102703 13 296 1.6 9.7 0.00 0.00 0.00 83 1011.8
20260510101803 13 297 1.6 6.4 0.00 0.00 0.00 82 1011.8
20260510100903 13 305 3.2 11.3 0.00 0.00 0.00 82 1011.8
20260510100003 13 296 3.2 11.3 0.00 0.00 0.00 82 1011.8
20260510095403 13 301 3.2 9.7 0.00 0.00 0.00 82 1011.9
20260510094503 13 299 3.2 9.7 0.00 0.00 0.00 82 1011.8
20260510093603 13 312 3.2 9.7 0.00 0.00 0.00 82 1011.9
20260510092703 13 306 3.2 8.0 0.00 0.00 0.00 81 1011.9
20260510091803 14 308 3.2 8.0 0.00 0.00 0.00 81 1011.9
20260510090903 14 308 3.2 8.0 0.00 0.00 0.00 81 1011.8
20260510090003 14 319 3.2 6.4 0.00 0.00 0.00 80 1011.6
20260510085403 14 323 1.6 6.4 0.00 0.00 0.00 80 1011.7
20260510084503 14 285 1.6 6.4 0.00 0.00 0.00 80 1011.8
20260510083605 14 306 1.6 4.8 0.00 0.00 0.00 79 1011.8
20260510082724 14 315 1.6 4.8 0.00 0.00 0.00 79 1011.8
20260510081803 15 292 1.6 4.8 0.00 0.00 0.00 78 1011.9
20260510080903 15 299 1.6 9.7 0.00 0.00 0.00 78 1011.9
20260510080003 15 313 1.6 6.4 0.00 0.00 0.00 78 1011.8
20260510075403 15 315 3.2 6.4 0.00 0.00 0.00 78 1011.9
20260510074503 15 301 1.6 6.4 0.00 0.00 0.00 77 1011.7
20260510073603 15 308 3.2 8.0 0.00 0.00 0.00 77 1011.8
20260510072725 15 322 3.2 8.0 0.00 0.00 0.00 76 1011.8
20260510071803 15 318 3.2 8.0 0.00 0.00 0.00 76 1011.8
20260510070903 15 321 3.2 8.0 0.00 0.00 0.00 75 1011.7
20260510070004 15 311 3.2 8.0 0.00 0.00 0.00 74 1011.8
20260510065424 16 328 3.2 8.0 0.00 0.00 0.00 74 1011.8
20260510064503 16 320 1.6 8.0 0.00 0.00 0.00 73 1011.6
20260510063603 16 312 3.2 6.4 0.00 0.00 0.00 72 1011.6
20260510062703 16 292 3.2 6.4 0.00 0.00 0.00 71 1011.6
20260510061803 16 298 1.6 4.8 0.00 0.00 0.00 71 1011.6
20260510060924 16 283 1.6 4.8 0.00 0.00 0.00 70 1011.5
20260510060003 17 281 1.6 4.8 0.00 0.00 0.00 69 1011.4
20260510055403 17 263 1.6 4.8 0.00 0.00 0.00 69 1011.3
20260510054503 17 254 1.6 6.4 0.00 0.00 0.00 68 1011.4
20260510053603 17 271 1.6 3.2 0.00 0.00 0.00 67 1011.3
20260510052703 17 304 1.6 4.8 0.00 0.00 0.00 66 1011.3
20260510051803 18 277 1.6 9.7 0.00 0.00 0.00 65 1011.2
20260510050903 18 245 1.6 4.8 0.00 0.00 0.00 64 1011.3
20260510050003 18 249 1.6 6.4 0.00 0.00 0.00 63 1011.4
20260510045403 18 248 3.2 6.4 0.00 0.00 0.00 62 1011.4
20260510044503 18 254 3.2 6.4 0.00 0.00 0.00 61 1011.3
20260510043603 19 262 3.2 8.0 0.00 0.00 0.00 61 1011.3
20260510042703 20 245 3.2 8.0 0.00 0.00 0.00 61 1011.4
20260510041803 20 244 3.2 6.4 0.00 0.00 0.00 59 1011.2
20260510040903 20 248 1.6 6.4 0.00 0.00 0.00 57 1011.2
20260510040006 20 247 1.6 9.7 0.00 0.00 0.00 57 1011.0
20260510035403 21 248 3.2 9.7 0.00 0.00 0.00 57 1010.9
20260510034503 21 248 3.2 6.4 0.00 0.00 0.00 57 1010.8
20260510033603 21 245 3.2 6.4 0.00 0.00 0.00 56 1010.7
20260510032703 22 248 3.2 8.0 0.00 0.00 0.00 55 1010.6
20260510031803 22 242 3.2 8.0 0.00 0.00 0.00 54 1010.6
20260510030903 23 245 3.2 6.4 0.00 0.00 0.00 53 1010.4
20260510030003 23 237 3.2 14.5 0.00 0.00 0.00 50 1010.3
20260510025403 24 243 3.2 14.5 0.00 0.00 0.00 49 1010.3
20260510024503 25 255 4.8 16.1 0.00 0.00 0.00 49 1010.3
20260510023603 25 254 4.8 14.5 0.00 0.00 0.00 48 1010.3
20260510022703 26 246 4.8 9.7 0.00 0.00 0.00 50 1010.3
20260510021803 26 250 4.8 12.9 0.00 0.00 0.00 49 1010.3
20260510020903 26 253 4.8 12.9 0.00 0.00 0.00 47 1010.4
20260510020003 27 250 4.8 19.3 0.00 0.00 0.00 48 1010.3
20260510015403 27 251 4.8 16.1 0.00 0.00 0.00 47 1010.3
20260510014503 27 260 4.8 14.5 0.00 0.00 0.00 47 1010.3
20260510013603 28 253 6.4 16.1 0.00 0.00 0.00 46 1010.3
20260510012703 28 255 6.4 16.1 0.00 0.00 0.00 45 1010.3
20260510011803 29 263 4.8 14.5 0.00 0.00 0.00 45 1010.3
20260510010903 29 248 4.8 16.1 0.00 0.00 0.00 45 1010.3
20260510010003 30 257 4.8 17.7 0.00 0.00 0.00 44 1010.2
20260510005403 30 264 6.4 17.7 0.00 0.00 0.00 44 1010.3
20260510004503 30 255 6.4 22.5 0.00 0.00 0.00 42 1010.3
20260510003603 31 261 6.4 20.9 0.00 0.00 0.00 41 1010.2
20260510002703 32 286 6.4 16.1 0.00 0.00 0.00 41 1010.2
20260510001803 32 322 6.4 16.1 0.00 0.00 0.00 45 1010.1
20260510000903 32 326 11.3 19.3 0.00 0.00 0.00 43 1010.1
20260510000003 32 324 6.4 17.7 0.00 0.00 0.00 42 1010.1
20260509235403 32 318 8.0 19.3 0.00 0.00 0.00 43 1010.1
20260509234503 32 321 8.0 20.9 0.00 0.00 0.00 41 1010.1
20260509233603 32 320 9.7 20.9 0.00 0.00 0.00 41 1010.2
20260509232703 32 324 9.7 19.3 0.00 0.00 0.00 41 1010.2
20260509231803 32 312 9.7 19.3 0.00 0.00 0.00 41 1010.2
20260509230903 32 333 9.7 20.9 0.00 0.00 0.00 40 1010.4
20260509230003 32 336 9.7 17.7 0.00 0.00 0.00 40 1010.3
20260509225403 32 332 11.3 20.9 0.00 0.00 0.00 38 1010.6
20260509224503 32 321 9.7 20.9 0.00 0.00 0.00 38 1010.6
20260509223603 32 325 8.0 14.5 0.00 0.00 0.00 38 1010.7
20260509222703 32 317 6.4 16.1 0.00 0.00 0.00 38 1011.0
20260509221803 32 320 8.0 20.9 0.00 0.00 0.00 39 1011.1
20260509220903 32 319 9.7 20.9 0.00 0.00 0.00 37 1011.2
20260509220024 31 328 9.7 20.9 0.00 0.00 0.00 38 1011.3
20260509215424 31 327 9.7 20.9 0.00 0.00 0.00 38 1011.3
20260509214503 31 330 8.0 19.3 0.00 0.00 0.00 39 1011.4
20260509213603 31 320 8.0 17.7 0.00 0.00 0.00 40 1011.6
20260509212703 31 316 8.0 17.7 0.00 0.00 0.00 41 1011.6
20260509211803 31 320 8.0 19.3 0.00 0.00 0.00 42 1011.7
20260509210903 31 318 6.4 14.5 0.00 0.00 0.00 42 1011.8
20260509210003 30 330 8.0 17.7 0.00 0.00 0.00 42 1012.0
20260509205403 30 330 8.0 17.7 0.00 0.00 0.00 42 1012.0
20260509204503 30 321 8.0 14.5 0.00 0.00 0.00 42 1012.0
20260509203603 30 323 8.0 19.3 0.00 0.00 0.00 45 1012.1
20260509202703 30 325 8.0 20.9 0.00 0.00 0.00 45 1012.2
20260509201803 30 313 9.7 16.1 0.00 0.00 0.00 47 1012.4
20260509200903 30 323 9.7 20.9 0.00 0.00 0.00 47 1012.4
20260509200003 29 320 8.0 17.7 0.00 0.00 0.00 47 1012.5
20260509195403 29 323 9.7 17.7 0.00 0.00 0.00 47 1012.5
20260509194503 29 317 6.4 14.5 0.00 0.00 0.00 47 1012.7
20260509193603 28 318 8.0 16.1 0.00 0.00 0.00 48 1012.8
20260509192703 28 319 6.4 16.1 0.00 0.00 0.00 51 1013.0
20260509191803 28 319 8.0 16.1 0.00 0.00 0.00 50 1013.2
20260509190903 27 321 6.4 17.7 0.00 0.00 0.00 52 1013.1
20260509190003 27 323 6.4 14.5 0.00 0.00 0.00 53 1013.2
20260509185403 27 310 8.0 16.1 0.00 0.00 0.00 53 1013.3
20260509184503 26 322 8.0 16.1 0.00 0.00 0.00 54 1013.4
20260509183603 26 319 8.0 16.1 0.00 0.00 0.00 55 1013.4
20260509182703 26 314 6.4 19.3 0.00 0.00 0.00 56 1013.3
20260509181803 26 307 6.4 16.1 0.00 0.00 0.00 57 1013.5
20260509180903 25 312 6.4 17.7 0.00 0.00 0.00 56 1013.6
20260509180024 25 301 6.4 12.9 0.00 0.00 0.00 56 1013.6
20260509175403 25 304 6.4 14.5 0.00 0.00 0.00 56 1013.8
20260509174503 25 310 6.4 14.5 0.00 0.00 0.00 55 1013.9
20260509173624 25 307 4.8 14.5 0.00 0.00 0.00 57 1013.7
20260509172703 24 297 4.8 12.9 0.00 0.00 0.00 56 1013.7
20260509171803 24 306 6.4 12.9 0.00 0.00 0.00 57 1013.7
20260509170903 23 313 4.8 12.9 0.00 0.00 0.00 58 1013.7
20260509170003 23 281 4.8 14.5 0.00 0.00 0.00 60 1013.8
20260509165403 22 260 4.8 8.0 0.00 0.00 0.00 59 1013.8
20260509164506 22 301 3.2 11.3 0.00 0.00 0.00 60 1013.9
20260509163624 22 299 3.2 6.4 0.00 0.00 0.00 62 1013.9
20260509162724 21 311 4.8 11.3 0.00 0.00 0.00 64 1013.9
20260509161824 21 328 3.2 8.0 0.00 0.00 0.00 65 1013.9
20260509160924 20 292 3.2 9.7 0.00 0.00 0.00 66 1013.8
20260509160026 20 327 3.2 6.4 0.00 0.00 0.00 68 1014.0
20260509155403 20 353 3.2 6.4 0.00 0.00 0.00 69 1014.0
20260509154503 20 30 3.2 6.4 0.00 0.00 0.00 70 1013.9
20260509153603 19 30 1.6 6.4 0.00 0.00 0.00 72 1013.9